Location: Stuttgart
(48.7824°N, 9.1964°E)
Time: 03:02:12
(UTC+01:00)

ISS - Pass Details

Date: 24 January 2019
Orbit: 403 x 411 km, 51.6° (Epoch: 17 February)

Event Time Altitude Azimuth Distance (km) Brightness Sun altitude
Rises 17:42:42 0° 188° (S) 2,320 0.5 -6.0°
Reaches altitude 10° 17:46:17 10° 146° (SE) 1,469 -1.1 -6.6°
Maximum altitude 17:47:00 11° 134° (SE) 1,440 -1.3 -6.7°
Drops below altitude 10° 17:47:42 10° 121° (ESE) 1,473 -1.3 -6.8°
Enters shadow 17:49:18 - 98° (E) 1,750 -1.1 -7.1°
